CAPE
0 0 0 0 1 0 0 0 10 6 18 26 0 4 0 48 147 405 509 391 223 155 195 87 67 48 0 0 0 0 0 0 15 69 44 66 72 31 59 138 337 433 482 459
0 0 0 0 16 0 0 0 0 25 51 1 0 10 4 15 190 270 468 337 345 188 189 140 44 8 0 0 0 0 0 117 229 218 130 22 0 0 0 134 418 494 531 480
0 0 0 0 0 0 0 0 13 34 28 25 13 5 0 3 100 201 540 491 466 278 208 185 101 20 0 0 0 0 111 324 325 291 193 56 10 19 10 493 531 494 521 504
0 0 2 2 0 0 1 2 18 0 4 22 1 30 9 4 31 184 422 681 268 175 261 230 208 117 10 0 4 118 202 380 391 345 149 53 23 18 52 463 556 498 444 439
0 0 0 0 0 0 0 0 0 0 0 12 17 28 20 0 1 131 252 520 433 406 184 277 257 256 125 147 222 307 309 311 227 365 422 176 84 30 44 189 476 408 322 573
0 0 0 0 0 0 0 0 0 0 7 86 88 72 56 1 12 56 160 309 503 633 457 398 272 249 415 328 448 656 582 449 461 570 361 594 207 296 324 656 506 421 274 211
0 0 0 0 0 0 0 0 15 102 130 222 61 143 66 37 38 15 43 212 427 508 639 522 520 347 271 456 618 814 786 585 612 916 654 691 849 359 467 655 507 453 295 240
0 0 0 0 0 0 0 0 98 24 187 217 4 25 0 20 0 0 0 23 232 305 650 503 372 666 486 490 787 793 775 746 751 926 1089 1057 929 984 668 810 626 411 325 271
0 0 0 0 0 0 1 0 10 143 127 239 54 45 36 0 0 0 0 0 97 245 322 580 692 453 646 686 881 1004 889 780 733 1020 1117 1275 1291 1259 1126 1040 864 543 464 381
3 0 0 0 0 0 0 2 24 58 59 41 7 31 72 1 2 0 0 0 48 126 268 388 482 936 594 703 928 1154 1086 1104 983 957 1141 1306 1429 1415 1319 1070 816 620 457 224
20 54 12 10 0 0 0 0 27 31 29 44 109 72 8 7 0 6 0 0 0 144 284 293 447 618 1121 973 736 1288 1466 1375 1267 1165 1218 1355 1419 1185 1153 1071 638 494 174 107
19 37 31 11 0 0 0 0 14 74 28 136 136 110 30 13 3 13 2 25 17 39 110 329 337 381 543 1333 1481 1377 1513 1517 1407 1192 1360 1350 1161 984 917 839 563 247 178 136
55 60 37 15 12 10 0 1 18 16 35 45 103 12 40 12 1 7 21 13 21 70 52 200 488 457 457 626 865 1383 1666 1593 1521 1247 1168 934 1071 845 605 641 591 278 290 162
23 112 61 40 16 3 0 0 4 63 55 71 46 33 58 21 8 18 23 12 1 61 1 113 349 560 686 787 883 1061 1143 1140 1136 1019 1024 1023 1073 649 672 459 475 330 269 221
44 140 116 53 7 14 0 0 0 2 6 41 110 26 17 31 30 18 16 38 1 2 2 2 104 677 934 1095 981 929 958 978 958 892 812 701 636 480 310 303 308 253 288 80
20 23 92 112 35 30 19 23 8 0 0 2 12 12 6 0 9 14 0 0 16 12 86 37 7 921 1214 1288 1228 1068 949 932 850 792 677 714 502 295 198 168 105 64 58 71
51 65 63 37 49 40 0 1 15 5 12 8 12 14 2 12 6 26 11 1 0 10 111 113 210 1255 1020 995 1082 990 651 607 687 480 379 328 252 151 63 53 75 58 67 47
62 124 77 111 59 0 2 15 0 7 2 4 8 3 6 1 4 14 11 0 19 22 83 195 777 801 614 619 507 295 206 113 246 263 311 118 68 43 28 12 2 0 0 0
24 143 71 0 57 18 12 0 2 0 0 1 0 0 16 12 32 13 1 0 9 13 45 129 199 183 82 31 2 16 175 57 10 7 10 4 0 0 0 0 0 0 5 2
0 50 96 37 0 0 56 20 8 5 0 8 0 17 33 59 41 11 0 0 0 0 0 0 0 0 0 0 0 0 0 0 0 0 0 0 0 0 0 0 0 0 0 0
0 16 0 8 0 61 33 11 46 19 8 76 44 45 85 67 90 0 0 0 0 0 0 0 0 0 0 0 0 0 0 0 0 0 0 0 0 0 0 0 0 0 0 0
33 39 40 51 0 0 53 44 33 38 186 198 160 130 119 63 5 0 0 0 0 0 0 0 0 0 0 0 0 0 0 0 0 0 0 0 0 0 0 0 0 0 0 0
0 0 121 106 142 244 204 101 66 113 181 236 278 197 135 33 1 0 0 0 0 0 0 0 0 0 0 0 0 0 0 0 0 0 0 0 0 0 0 0 0 0 0 0
0 47 0 4 24 74 141 111 109 71 130 114 117 109 98 56 5 0 0 0 0 0 0 0 0 0 0 0 0 0 0 0 0 0 0 0 0 0 0 0 0 0 0 0
61 20 0 0 1 4 10 2 83 80 118 110 51 37 61 83 14 0 0 0 0 0 0 0 0 0 0 0 0 0 0 0 0 0 0 0 0 0 0 0 0 0 0 0
6 9 78 182 53 99 69 39 8 100 159 184 54 33 6 38 5 0 0 0 0 0 0 0 0 0 0 0 0 0 0 0 0 0 0 0 0 0 0 0 0 0 0 0
CIN
0 0 0 0 -1 0 -1 0 -5 -50 -19 -11 0 -13 -1 -23 -3 -15 -8 -2 -9 -26 -40 -55 -85 -103 0 0 0 0 0 0 -20 -16 -19 -16 -45 -18 -26 -17 -20 -20 -7 -15
0 0 0 0 -2 0 0 0 0 -4 -3 -16 0 -14 -2 -40 -28 -34 -40 -39 -34 -49 -26 -27 -104 -160 0 0 0 0 0 -1 -1 -10 -9 -9 0 0 0 -14 -16 -13 -3 -14
0 0 0 0 0 0 0 0 -1 -2 -3 -16 -23 -7 0 -4 -16 -9 -15 -46 -44 -48 -59 -57 -78 -171 0 0 0 0 -43 -17 -26 -23 -5 -26 -41 -25 -37 -27 -25 -28 -14 -2
0 0 -2 -1 0 0 -1 -3 -1 -1 -3 -2 -4 -19 -11 -6 -12 -20 -8 -48 -68 -100 -74 -89 -82 -99 -163 0 -95 -72 -19 -11 -20 -18 -25 -73 -90 -108 -68 -30 -23 -31 -16 -4
0 0 0 0 0 0 0 -1 0 0 -1 -16 -24 -27 -1 -6 -18 -5 -3 -19 -55 -99 -98 -112 -128 -121 -165 -123 -83 -33 -16 -14 -30 -23 -20 -58 -78 -109 -66 -30 -42 -39 -34 -2
0 0 0 0 0 0 0 0 0 0 -33 -9 -2 -4 -7 -2 -5 -2 -2 -9 -12 -58 -90 -66 -99 -114 -77 -90 -45 -24 -13 -12 -28 -37 -65 -41 -74 -34 -18 -40 -30 -67 -103 -77
0 0 0 0 0 0 0 0 -2 -1 -3 -1 -31 -3 -1 -85 -28 -26 -12 -9 -17 -25 -42 -54 -49 -59 -112 -100 -79 -44 -44 -51 -26 -42 -71 -54 -26 -73 -23 -33 -45 -57 -55 -64
0 0 0 0 0 0 0 0 -2 -12 -1 -2 -13 -21 0 -4 0 0 0 -32 -8 -9 -20 -34 -27 -35 -69 -116 -105 -102 -93 -85 -49 -24 -35 -46 -26 -9 -31 -27 -35 -67 -38 -66
0 0 0 0 0 0 -1 0 -25 -1 0 -7 -9 -10 -4 -8 0 0 0 0 -3 -11 -13 -9 -22 -38 -40 -62 -101 -130 -117 -109 -81 -45 -36 -21 -19 -6 -7 -26 -17 -41 -33 -55
-1 0 0 0 0 0 0 -2 -3 -2 -2 -1 -4 -3 -40 -19 -9 0 0 -21 -26 -24 -33 -36 -18 -33 -27 -48 -74 -127 -123 -67 -66 -39 -45 -33 -15 -11 -11 -16 -39 -58 -32 -44
-13 -3 -1 0 0 0 0 0 -3 -1 -3 -4 -3 -3 -9 -12 0 -2 0 0 -11 -10 -40 -46 -44 -18 -26 -30 -30 -80 -76 -51 -18 -19 -25 -40 -12 -11 -3 -6 -55 -48 -52 -46
-6 -3 -3 -2 0 0 0 0 -2 -4 -2 0 -52 -10 -17 -17 -2 -4 -8 -18 -23 -20 -8 -37 -46 -53 -40 -23 -22 -30 -51 -44 -27 -5 -25 -50 -10 -17 -20 -21 -55 -96 -69 -50
-2 -3 -1 -3 -1 -3 0 0 -1 -4 -5 -4 -6 -35 -11 -2 -1 -29 -30 -22 -18 -17 -31 -13 -46 -67 -71 -60 -20 -28 -38 -17 -10 -4 -19 -25 -22 -71 -72 -38 -27 -57 -34 -52
-62 -1 0 0 -1 -4 0 0 -5 -1 -9 -6 -5 -4 -4 -2 -14 -9 -23 -34 -22 -13 -7 -18 -20 -28 -52 -70 -77 -43 -54 -22 -19 -27 -34 -26 -18 -71 -45 -52 -44 -45 -43 -27
-69 -2 -1 0 -2 -3 0 0 0 -1 -2 -2 -1 -2 -3 -1 -5 -13 -14 -3 -21 -73 0 -5 -6 -30 -30 -54 -104 -133 -94 -87 -85 -84 -89 -53 -98 -102 -99 -87 -67 -62 -24 -36
-70 -8 -5 -2 0 -1 -5 0 -3 0 0 -2 -1 -1 -5 0 -10 -4 0 0 -14 -38 -33 -31 -18 -35 -35 -46 -72 -86 -92 -86 -93 -111 -112 -72 -92 -113 -114 -97 -89 -74 -42 -13
-31 -32 -10 -10 -3 -3 -1 -1 -1 -2 0 -2 -2 -2 -3 -2 -5 -8 -6 -2 0 -40 -82 -90 -39 -45 -51 -79 -96 -115 -141 -122 -98 -111 -112 -86 -114 -112 -63 -84 -57 -42 -11 -1
-18 -22 -18 -21 -12 0 -4 -7 -5 -7 -3 -6 -2 -4 -3 -2 -9 -11 -29 0 -41 -68 -121 -92 -75 -77 -115 -117 -138 -139 -155 -152 -116 -104 -108 -73 -116 -111 -90 -60 -35 0 0 0
-9 -37 -9 0 -7 -2 -3 0 -6 0 0 -1 0 0 -1 -3 -20 -44 -69 0 -58 -160 -191 -169 -132 -137 -205 -258 -53 -164 -82 -127 -24 -179 -191 -30 0 0 0 0 0 0 0 0
0 -9 -31 -11 0 0 -5 -8 -15 -16 0 -11 -2 -11 -6 -8 -28 -28 0 0 0 0 0 0 0 0 0 0 0 0 0 0 0 0 0 0 0 0 0 0 0 0 0 0
0 -4 0 -8 0 -3 -3 -33 -55 -24 -13 -82 -20 -6 -9 -7 -45 0 0 0 0 0 0 0 0 0 0 0 0 0 0 0 0 0 0 0 0 0 0 0 0 0 0 0
-4 -1 -4 -19 0 0 -12 -37 -26 -98 -69 -23 -10 -15 -28 -187 -244 0 0 0 0 0 0 0 0 0 0 0 0 0 0 0 0 0 0 0 0 0 0 0 0 0 0 0
0 0 -7 -14 -7 -8 -20 -35 -79 -96 -50 -51 -27 -30 -22 -182 -20 0 0 0 0 0 0 0 0 0 0 0 0 0 0 0 0 0 0 0 0 0 0 0 0 0 0 0
0 -30 0 -4 -15 -20 -10 -35 -40 -54 -74 -54 -35 -53 -48 -138 -44 0 0 0 0 0 0 0 0 0 0 0 0 0 0 0 0 0 0 0 0 0 0 0 0 0 0 0
-9 -31 0 0 -1 -3 -5 -2 -26 -45 -53 -71 -93 -95 -95 -96 -79 -9 0 0 0 0 0 0 0 0 0 0 0 0 0 0 0 0 0 0 0 0 0 0 0 0 0 0
-11 -4 -14 -13 -26 -24 -36 -115 -33 -93 -64 -34 -33 -99 -14 -82 -91 0 0 0 0 0 0 0 0 0 0 0 0 0 0 0 0 0 0 0 0 0 0 0 0 0 0 0
Wind_Speed
nan nan nan nan nan nan nan nan nan nan nan nan nan nan nan nan 28 15 25 22 15 20 16 nan nan nan nan nan nan nan nan nan nan nan nan nan nan nan nan 3 7 10 10 14
nan nan nan nan nan nan nan nan nan nan nan nan nan nan nan nan 20 22 20 18 17 18 19 21 nan nan nan nan nan nan nan 19 15 13 12 nan nan nan nan 11 12 14 16 19
nan nan nan nan nan nan nan nan nan nan nan nan nan nan nan nan 29 27 24 20 22 21 21 23 23 nan nan nan nan nan 24 24 22 22 16 nan nan nan nan 18 18 18 18 19
nan nan nan nan nan nan nan nan nan nan nan nan nan nan nan nan nan 23 30 25 25 21 23 22 24 26 nan nan nan 25 23 26 24 22 21 nan nan nan nan 22 22 23 23 20
nan nan nan nan nan nan nan nan nan nan nan nan nan nan nan nan nan 30 25 32 26 26 22 31 31 31 33 29 27 21 17 19 19 22 16 21 nan nan nan 20 28 25 25 23
nan nan nan nan nan nan nan nan nan nan nan nan nan nan nan nan nan nan 27 32 30 25 26 26 32 31 28 25 22 24 24 21 17 23 23 21 24 19 18 22 25 26 24 28
nan nan nan nan nan nan nan nan nan 5 2 9 nan 7 nan nan nan nan nan 34 30 28 25 25 27 27 27 24 22 21 25 22 19 23 25 21 18 22 16 20 25 26 24 28
nan nan nan nan nan nan nan nan nan nan 9 9 nan nan nan nan nan nan nan nan 28 27 31 30 28 31 27 22 20 21 22 21 17 18 19 17 17 17 19 23 28 27 25 32
nan nan nan nan nan nan nan nan nan 9 12 13 nan nan nan nan nan nan nan nan nan 22 21 26 32 30 32 30 25 20 21 22 19 19 20 20 20 20 22 25 29 27 31 34
nan nan nan nan nan nan nan nan nan nan nan nan nan nan nan nan nan nan nan nan nan 16 15 16 21 27 28 29 29 27 26 22 22 21 23 24 26 26 27 30 31 35 39 43
nan nan nan nan nan nan nan nan nan nan nan nan 12 nan nan nan nan nan nan nan nan 27 22 17 18 19 27 27 28 30 29 29 27 29 31 31 34 38 35 34 34 40 44 47
nan nan nan nan nan nan nan nan nan nan nan 13 19 17 nan nan nan nan nan nan nan nan 29 24 22 23 23 24 29 32 33 27 28 33 40 36 38 42 42 42 45 49 51 52
nan nan nan nan nan nan nan nan nan nan nan nan 19 nan nan nan nan nan nan nan nan nan nan 27 25 27 25 26 26 34 36 34 32 40 45 47 46 49 50 52 54 56 54 55
nan 29 nan nan nan nan nan nan nan nan nan nan nan nan nan nan nan nan nan nan nan nan nan 25 27 24 28 29 31 36 40 43 47 50 50 50 45 48 52 52 51 53 54 55
nan 37 29 nan nan nan nan nan nan nan nan nan 8 nan nan nan nan nan nan nan nan nan nan nan 23 33 28 35 38 38 39 40 43 46 48 45 46 50 49 47 51 53 53 nan
nan nan nan 26 nan nan nan nan nan nan nan nan nan nan nan nan nan nan nan nan nan nan nan nan nan 43 37 40 40 40 40 40 42 44 46 46 47 48 51 53 56 nan nan nan
nan nan nan nan nan nan nan nan nan nan nan nan nan nan nan nan nan nan nan nan nan nan 27 26 28 43 46 42 42 44 45 44 46 48 48 49 51 51 nan nan nan nan nan nan
nan 42 nan 29 nan nan nan nan nan nan nan nan nan nan nan nan nan nan nan nan nan nan nan 31 37 40 48 48 47 47 47 45 46 47 49 49 nan nan nan nan nan nan nan nan
nan 48 nan nan nan nan nan nan nan nan nan nan nan nan nan nan nan nan nan nan nan nan nan 36 39 42 nan nan nan nan 49 nan nan nan nan nan nan nan nan nan nan nan nan nan
nan nan nan nan nan nan nan nan nan nan nan nan nan nan nan nan nan nan nan nan nan nan nan nan nan nan nan nan nan nan nan nan nan nan nan nan nan nan nan nan nan nan nan nan
nan nan nan nan nan nan nan nan nan nan nan nan nan nan nan nan nan nan nan nan nan nan nan nan nan nan nan nan nan nan nan nan nan nan nan nan nan nan nan nan nan nan nan nan
nan nan nan nan nan nan nan nan nan nan 24 26 32 29 35 nan nan nan nan nan nan nan nan nan nan nan nan nan nan nan nan nan nan nan nan nan nan nan nan nan nan nan nan nan
nan nan 45 55 51 47 32 33 nan 35 36 40 42 39 41 nan nan nan nan nan nan nan nan nan nan nan nan nan nan nan nan nan nan nan nan nan nan nan nan nan nan nan nan nan
nan nan nan nan nan nan 45 40 40 nan 31 34 38 40 nan nan nan nan nan nan nan nan nan nan nan nan nan nan nan nan nan nan nan nan nan nan nan nan nan nan nan nan nan nan
nan nan nan nan nan nan nan nan nan nan 35 32 nan nan nan nan nan nan nan nan nan nan nan nan nan nan nan nan nan nan nan nan nan nan nan nan nan nan nan nan nan nan nan nan
nan nan nan 36 nan nan nan nan nan 40 36 35 nan nan nan nan nan nan nan nan nan nan nan nan nan nan nan nan nan nan nan nan nan nan nan nan nan nan nan nan nan nan nan nan
Wind_Direction
nan nan nan nan nan nan nan nan nan nan nan nan nan nan nan nan 323 353 357 7 353 359 340 nan nan nan nan nan nan nan nan nan nan nan nan nan nan nan nan 28 340 322 299 298
nan nan nan nan nan nan nan nan nan nan nan nan nan nan nan nan 351 359 355 16 350 344 346 356 nan nan nan nan nan nan nan 33 37 38 32 nan nan nan nan 338 309 302 303 304
nan nan nan nan nan nan nan nan nan nan nan nan nan nan nan nan 355 3 360 358 346 6 1 2 354 nan nan nan nan nan 13 12 13 19 9 nan nan nan nan 310 311 309 313 300
nan nan nan nan nan nan nan nan nan nan nan nan nan nan nan nan nan 14 355 355 355 6 3 5 359 5 nan nan nan 20 15 2 5 9 349 nan nan nan nan 316 313 309 305 303
nan nan nan nan nan nan nan nan nan nan nan nan nan nan nan nan nan 335 355 344 359 348 7 358 1 3 5 3 3 6 7 360 350 346 327 322 nan nan nan 310 305 306 302 302
nan nan nan nan nan nan nan nan nan nan nan nan nan nan nan nan nan nan 339 327 343 350 356 347 343 351 353 353 358 352 354 352 343 334 336 324 328 324 316 310 309 309 310 302
nan nan nan nan nan nan nan nan nan 242 281 37 nan 89 nan nan nan nan nan 319 332 335 346 347 343 347 345 349 352 352 354 0 350 333 337 338 322 323 315 306 312 316 325 313
nan nan nan nan nan nan nan nan nan nan 189 231 nan nan nan nan nan nan nan nan 294 316 322 331 332 335 339 348 345 345 348 350 347 326 323 320 323 301 310 309 312 314 315 312
nan nan nan nan nan nan nan nan nan 258 287 213 nan nan nan nan nan nan nan nan nan 302 303 319 323 322 329 333 338 341 339 347 346 333 320 316 312 313 301 298 294 293 300 308
nan nan nan nan nan nan nan nan nan nan nan nan nan nan nan nan nan nan nan nan nan 283 275 289 310 316 320 324 328 334 335 332 328 318 314 309 307 301 294 287 293 296 298 297
nan nan nan nan nan nan nan nan nan nan nan nan 236 nan nan nan nan nan nan nan nan 301 294 282 263 277 312 316 311 326 321 321 313 316 311 303 297 291 286 285 288 294 295 296
nan nan nan nan nan nan nan nan nan nan nan 259 260 192 nan nan nan nan nan nan nan nan 289 286 282 266 263 285 288 299 302 303 301 300 302 297 290 287 286 288 287 289 292 295
nan nan nan nan nan nan nan nan nan nan nan nan 232 nan nan nan nan nan nan nan nan nan nan 287 284 281 275 270 271 282 294 296 292 278 281 282 277 278 283 288 292 293 295 296
nan 213 nan nan nan nan nan nan nan nan nan nan nan nan nan nan nan nan nan nan nan nan nan 292 295 289 280 277 275 271 269 269 272 274 276 279 279 279 283 287 285 288 291 294
nan 201 210 nan nan nan nan nan nan nan nan nan 264 nan nan nan nan nan nan nan nan nan nan nan 294 295 283 275 270 270 270 271 273 274 279 283 285 285 285 282 281 286 291 nan
nan nan nan 190 nan nan nan nan nan nan nan nan nan nan nan nan nan nan nan nan nan nan nan nan nan 287 290 283 285 282 280 279 282 283 281 281 283 282 283 285 290 nan nan nan
nan nan nan nan nan nan nan nan nan nan nan nan nan nan nan nan nan nan nan nan nan nan 264 263 267 278 284 288 289 288 284 284 283 283 284 283 283 284 nan nan nan nan nan nan
nan 200 nan 221 nan nan nan nan nan nan nan nan nan nan nan nan nan nan nan nan nan nan nan 273 271 280 281 286 285 285 286 286 286 287 286 285 nan nan nan nan nan nan nan nan
nan 211 nan nan nan nan nan nan nan nan nan nan nan nan nan nan nan nan nan nan nan nan nan 274 277 280 nan nan nan nan 290 nan nan nan nan nan nan nan nan nan nan nan nan nan
nan nan nan nan nan nan nan nan nan nan nan nan nan nan nan nan nan nan nan nan nan nan nan nan nan nan nan nan nan nan nan nan nan nan nan nan nan nan nan nan nan nan nan nan
nan nan nan nan nan nan nan nan nan nan nan nan nan nan nan nan nan nan nan nan nan nan nan nan nan nan nan nan nan nan nan nan nan nan nan nan nan nan nan nan nan nan nan nan
nan nan nan nan nan nan nan nan nan nan 242 235 239 247 253 nan nan nan nan nan nan nan nan nan nan nan nan nan nan nan nan nan nan nan nan nan nan nan nan nan nan nan nan nan
nan nan 225 233 239 238 242 236 nan 229 226 228 234 237 256 nan nan nan nan nan nan nan nan nan nan nan nan nan nan nan nan nan nan nan nan nan nan nan nan nan nan nan nan nan
nan nan nan nan nan nan 238 250 241 nan 235 240 243 246 nan nan nan nan nan nan nan nan nan nan nan nan nan nan nan nan nan nan nan nan nan nan nan nan nan nan nan nan nan nan
nan nan nan nan nan nan nan nan nan nan 245 250 nan nan nan nan nan nan nan nan nan nan nan nan nan nan nan nan nan nan nan nan nan nan nan nan nan nan nan nan nan nan nan nan
nan nan nan 226 nan nan nan nan nan 237 248 259 nan nan nan nan nan nan nan nan nan nan nan nan nan nan nan nan nan nan nan nan nan nan nan nan nan nan nan nan nan nan nan nan